KB2KRJ Weather Reports


time (UTC)temp
C
wind
direction
speed
KPH
gust
KPH
rain 1hr
cm
rain 24hr
cm
rain mn
cm
humidity
%
barometer
mb
20260506180002 17 84 0.0 4.8 0.03 0.18 0.18 3 1005.4
20260506174557 17 51 0.0 6.4 0.00 0.15 0.15 3 1005.3
20260506173100 17 117 1.6 11.3 0.03 0.15 0.15 3 1005.2
20260506171549 17 130 1.6 12.9 0.03 0.15 0.15 3 1005.3
20260506170048 17 108 1.6 17.7 0.05 0.15 0.15 4 1005.4
20260506164543 17 134 0.0 8.0 0.05 0.15 0.15 5 1005.6
20260506163039 16 128 0.0 4.8 0.03 0.13 0.13 5 1005.9
20260506161532 16 90 1.6 8.0 0.05 0.13 0.13 6 1006.1
20260506160026 16 15 1.6 9.7 0.03 0.10 0.10 7 1006.3
20260506154522 16 19 0.0 0.0 0.05 0.10 0.10 8 1006.5
20260506153022 16 17 0.0 0.0 0.05 0.10 0.10 10 1006.7
20260506151519 16 17 0.0 0.0 0.05 0.08 0.08 13 1006.8
20260506150016 15 17 0.0 0.0 0.08 0.08 0.08 15 1006.8
20260506144519 15 17 0.0 0.0 0.05 0.05 0.05 19 1007.1
20260506143015 15 17 0.0 0.0 0.05 0.05 0.05 24 1007.3
20260506141513 15 17 0.0 0.0 0.03 0.03 0.03 28 1007.4
20260506140015 15 17 0.0 0.0 0.00 0.00 0.00 33 1007.7
20260506134510 15 17 0.0 0.0 0.00 0.00 0.00 39 1007.3
20260506133009 15 17 0.0 0.0 0.00 0.00 0.00 40 1007.2
20260506131509 14 17 0.0 0.0 0.00 0.00 0.00 40 1007.3
20260506130009 14 17 0.0 0.0 0.00 0.00 0.00 37 1007.0
20260506124508 13 17 0.0 0.0 0.00 0.00 0.00 36 1007.2
20260506123008 13 17 0.0 0.0 0.00 0.00 0.00 36 1007.3
20260506121507 13 17 0.0 0.0 0.00 0.00 0.00 36 1007.8
20260506120015 13 17 0.0 0.0 0.00 0.00 0.00 36 1008.2
20260506114517 13 17 0.0 0.0 0.00 0.00 0.00 35 1007.9
20260506113018 13 17 0.0 0.0 0.00 0.00 0.00 34 1007.7
20260506111505 12 17 0.0 0.0 0.00 0.00 0.00 34 1007.5
20260506110006 12 17 0.0 0.0 0.00 0.00 0.00 34 1007.5
20260506104503 12 17 0.0 3.2 0.00 0.00 0.00 33 1007.2
20260506103003 12 17 0.0 0.0 0.00 0.00 0.00 33 1007.4
20260506101501 12 17 0.0 1.6 0.00 0.00 0.00 35 1007.2
20260506100101 12 17 0.0 0.0 0.00 0.00 0.00 36 1007.4
20260506094600 12 17 0.0 0.0 0.00 0.00 0.00 37 1007.2
20260506093058 12 17 0.0 0.0 0.00 0.00 0.00 39 1007.2
20260506091601 12 17 0.0 0.0 0.00 0.00 0.00 41 1007.2
20260506090100 12 17 0.0 0.0 0.00 0.00 0.00 43 1007.4
20260506084552 12 17 0.0 0.0 0.00 0.00 0.00 44 1007.5
20260506083050 12 17 0.0 0.0 0.00 0.00 0.00 44 1007.7
20260506081549 12 17 0.0 0.0 0.00 0.00 0.00 45 1007.8
20260506073042 13 17 0.0 0.0 0.00 0.00 0.00 50 1008.3
20260506071540 13 17 0.0 0.0 0.00 0.00 0.00 51 1008.4
20260506061535 14 17 0.0 0.0 0.00 0.00 0.00 57 1008.9
20260506044523 16 18 0.0 3.2 0.00 0.00 0.00 48 1008.6
20260506043020 16 19 0.0 4.8 0.00 0.00 0.00 43 1008.7
20260506041519 16 15 0.0 3.2 0.00 0.00 0.00 41 1008.6
20260506040022 16 15 0.0 1.6 0.00 0.00 0.00 43 1008.3
20260506034520 16 15 0.0 0.0 0.00 0.00 0.00 43 1008.1
20260506033015 16 15 0.0 0.0 0.00 0.00 0.00 44 1007.8
20260506031514 16 15 0.0 0.0 0.00 0.00 0.00 44 1007.7
20260506030026 16 13 0.0 3.2 0.00 0.00 0.00 46 1007.8
20260506024528 17 13 0.0 1.6 0.00 0.00 0.00 49 1007.9
20260506023014 17 13 0.0 0.0 0.00 0.00 0.00 49 1008.1
20260506021513 17 13 0.0 1.6 0.00 0.00 0.00 55 1007.6
20260506020012 17 13 0.0 1.6 0.00 0.00 0.00 58 1007.5
20260506014511 17 13 0.0 6.4 0.00 0.00 0.00 60 1007.8
20260506013018 17 13 0.0 3.2 0.00 0.00 0.00 61 1007.6
20260506011510 18 13 0.0 1.6 0.00 0.00 0.00 64 1007.3
20260506010011 18 13 0.0 3.2 0.00 0.00 0.00 67 1007.2
20260506004509 18 17 0.0 4.8 0.00 0.00 0.00 66 1007.1
20260506003009 18 17 0.0 6.4 0.00 0.00 0.00 65 1006.8
20260506001509 18 98 0.0 4.8 0.00 0.00 0.00 65 1006.5
20260506000008 18 96 0.0 1.6 0.00 0.00 0.00 64 1006.4
20260505234508 19 96 0.0 1.6 0.00 0.00 0.00 64 1006.3
20260505233010 19 96 0.0 4.8 0.00 0.00 0.00 62 1006.3
20260505231507 19 328 0.0 4.8 0.00 0.00 0.00 63 1006.3
20260505230018 20 319 0.0 3.2 0.00 0.00 0.00 64 1006.0
20260505224506 20 313 0.0 4.8 0.00 0.00 0.00 62 1006.1
20260505223006 20 309 0.0 11.3 0.00 0.00 0.00 62 1005.9
20260505221505 20 221 3.2 12.9 0.00 0.00 0.00 61 1006.3
20260505220004 23 191 4.8 16.1 0.00 0.00 0.00 51 1005.6
20260505214506 26 179 1.6 8.0 0.00 0.00 0.00 33 1004.8
20260505213004 26 171 4.8 14.5 0.00 0.00 0.00 32 1004.3
20260505211504 26 146 4.8 20.9 0.00 0.00 0.00 32 1003.9
20260505210002 26 194 3.2 16.1 0.00 0.00 0.00 34 1003.7
20260505204502 27 189 4.8 17.7 0.00 0.00 0.00 35 1003.5
20260505203002 27 209 4.8 17.7 0.00 0.00 0.00 34 1003.6
20260505201559 27 207 6.4 19.3 0.00 0.00 0.00 31 1003.8
20260505194612 28 200 4.8 22.5 0.00 0.00 0.00 29 1003.8
20260505193055 28 196 8.0 16.1 0.00 0.00 0.00 29 1004.0
20260505191554 28 173 3.2 25.7 0.00 0.00 0.00 31 1004.1
20260505190053 27 198 6.4 14.5 0.00 0.00 0.00 33 1004.2
20260505184550 27 199 4.8 12.9 0.00 0.00 0.00 32 1004.3
20260505183058 28 192 4.8 14.5 0.00 0.00 0.00 33 1004.4
20260505181547 27 210 8.0 19.3 0.00 0.00 0.00 34 1004.8